Tracking 31027 objects as of 19-Jul-2025
HD Live streaming from Space Station
objects crossing your sky now

STARLINK-3593

Track STARLINK-3593 now!
10-day predictions
STARLINK-3593 is classified as:


NORAD ID: 51896
Int'l Code: 2022-022AW
Perigee: 546.1 km
Apogee: 547.7 km
Inclination: 53.2 °
Period: 95.4 minutes
Semi major axis: 6917 km
RCS: Unknown
Launch date: March 3, 2022
Source: United States (US)
Launch site: AIR FORCE EASTERN TEST RANGE (AFETR)
Your satellite tracking list
IRIDIUM 135
Track 1 satellite(s)




NASA's NSSDC Master Catalog

Two Line Element Set (TLE):
1 51896U 22022AW  25199.79526375  .00001676  00000-0  12335-3 0  9994
2 51896  53.2182 329.3336 0001102  88.7990 271.3129 15.08835723187986
Source of the keplerian elements: AFSPC